Lapse_Rate
7.7 7.6 6.8 6.4 6.4 5.4 5.5 5.2 6.4 3.5 3.4 6.0 6.3 6.5 6.5 6.3 6.4 6.3 6.4 6.5 6.5 6.5 6.5 6.5 6.5 6.5 6.5 5.4 5.7 6.5 6.5 6.5 6.5 6.5 6.5 6.5 6.5 6.5 6.5 6.5 6.5 6.5 6.5 6.5
7.7 7.6 7.6 7.4 6.1 5.6 5.5 6.1 5.1 4.6 4.8 6.5 6.5 6.5 6.5 6.5 6.5 6.5 6.5 6.5 6.5 6.5 6.5 6.5 6.5 6.5 6.2 5.3 6.3 6.5 6.5 6.5 6.5 6.5 6.5 6.5 6.5 6.5 6.5 6.5 6.5 6.5 6.5 6.5
7.3 7.5 7.5 7.5 7.0 6.2 5.4 4.7 6.5 6.4 5.9 6.0 6.5 6.5 6.5 6.5 6.2 6.5 6.5 6.5 6.5 6.5 6.5 6.5 6.5 6.5 6.5 6.1 6.3 6.2 6.2 6.5 6.5 6.5 6.5 6.5 6.5 6.5 6.5 6.5 6.5 6.5 6.5 6.5
7.4 7.3 7.5 7.7 7.3 6.2 4.9 5.2 6.0 6.0 6.5 6.5 6.5 6.5 6.5 6.5 6.5 6.2 6.3 6.5 6.5 6.5 6.5 6.5 6.5 6.5 6.5 6.6 6.7 6.5 6.5 6.5 6.5 6.5 6.5 6.5 6.5 6.5 6.5 6.5 6.5 6.5 6.5 6.5
7.3 7.3 7.4 7.4 7.4 6.6 5.5 5.8 6.1 6.1 5.7 6.5 6.5 6.5 6.5 6.5 6.5 6.5 6.5 6.5 6.5 6.5 6.5 6.5 6.5 6.5 6.5 6.5 6.4 6.5 6.5 6.5 6.5 6.5 6.5 6.5 6.5 6.5 6.5 6.5 6.5 6.5 6.5 6.5
7.8 7.6 7.4 7.4 7.7 7.3 6.0 5.6 5.2 5.5 6.4 6.5 6.5 6.5 6.5 6.5 6.3 6.1 6.2 6.3 6.5 6.5 6.5 6.0 5.8 5.9 6.2 6.2 6.5 6.5 6.5 6.5 6.5 6.5 6.5 6.5 6.5 6.5 6.5 6.5 6.5 6.5 6.5 6.5
7.7 7.4 7.5 7.4 7.6 7.4 6.5 5.7 5.5 6.0 6.5 6.5 6.5 6.5 6.4 6.5 6.4 6.5 6.2 5.9 6.4 6.2 5.5 5.4 5.4 5.4 5.6 6.3 6.5 6.6 6.5 6.5 6.5 6.5 6.5 6.5 6.5 6.5 6.5 6.5 6.5 6.5 6.5 6.5
8.0 7.7 7.3 7.3 7.6 7.7 5.8 5.6 5.9 5.8 6.5 6.5 6.4 6.3 6.4 6.1 5.9 6.3 6.3 5.7 5.0 5.0 5.5 6.5 6.5 6.5 6.5 6.5 6.5 6.5 6.5 6.5 6.5 6.5 6.5 6.5 6.5 6.5 6.5 6.5 6.5 6.5 6.5 6.5
8.3 7.8 7.5 7.0 7.3 7.6 6.4 5.3 5.3 6.0 6.4 6.5 6.3 6.4 6.0 6.5 6.5 6.5 5.8 3.6 2.6 5.3 6.5 6.5 6.5 6.5 6.5 6.5 6.5 6.5 6.5 6.5 6.5 6.5 6.5 6.5 6.5 6.5 6.1 6.5 6.5 6.5 6.3 6.4
8.0 8.1 7.8 7.8 7.1 7.5 7.1 5.3 5.8 5.8 6.4 6.0 5.7 6.4 6.5 6.0 6.2 6.5 6.3 6.1 5.6 5.2 6.5 6.5 6.5 6.5 6.5 6.5 6.5 6.5 6.5 6.5 6.5 6.5 6.5 6.5 6.5 6.3 5.8 6.5 6.5 6.2 5.7 5.9
8.1 8.5 8.0 7.9 7.1 7.0 7.0 5.7 6.0 6.1 6.7 6.1 5.2 5.8 5.4 5.0 6.3 6.5 6.3 6.4 6.1 6.5 6.5 6.5 6.5 6.5 6.5 6.5 6.5 6.5 6.5 6.5 6.5 6.5 6.5 6.5 5.3 6.4 6.5 6.1 5.8 5.0 5.4 5.5
8.0 8.6 8.1 8.0 7.5 6.8 6.1 6.0 5.3 6.1 6.3 5.4 3.2 2.8 3.1 5.3 6.5 6.5 5.7 6.4 6.2 6.6 6.5 6.5 6.5 6.5 6.5 6.5 6.5 6.5 6.5 6.5 6.5 6.5 6.5 6.0 5.0 6.1 4.9 3.5 4.0 4.8 4.8 5.7
8.2 8.2 7.9 8.2 8.4 8.1 6.8 6.3 5.1 5.5 5.5 5.2 4.4 4.5 3.0 3.2 3.4 4.2 5.6 5.3 5.9 5.0 5.2 6.1 6.4 6.5 6.5 6.5 6.5 6.5 6.5 5.9 6.5 6.5 6.5 6.2 5.1 5.4 4.3 4.3 3.8 4.3 4.9 4.7
8.5 8.2 8.3 8.3 8.5 8.1 7.9 6.4 5.0 6.7 5.7 6.5 5.1 3.7 4.0 3.8 3.7 4.0 4.2 5.0 4.3 4.6 5.0 6.2 6.5 6.5 5.8 6.5 6.5 6.5 6.1 6.1 6.5 6.5 6.5 6.1 5.7 4.9 4.6 4.4 4.0 4.5 5.1 5.4
8.9 8.5 8.3 8.4 8.5 8.0 7.3 5.0 5.1 6.7 6.3 5.9 5.1 4.7 5.4 4.8 4.0 4.6 4.8 4.9 4.4 5.1 6.4 6.5 6.5 6.0 6.2 6.3 6.5 6.5 5.3 6.5 6.5 6.5 5.5 5.2 4.6 3.9 4.6 3.5 4.0 4.4 4.8 5.3
8.2 8.1 8.1 8.1 8.0 8.2 5.7 5.3 4.0 5.8 5.6 4.1 6.5 5.0 4.8 5.0 4.5 5.5 5.1 4.9 5.1 5.4 6.2 6.3 5.6 5.3 5.5 6.5 6.5 5.9 3.7 3.6 4.8 5.9 4.1 3.9 3.1 3.2 4.1 4.2 4.5 5.1 5.0 5.8
8.2 7.8 7.7 7.7 7.7 6.4 5.9 5.8 4.4 3.8 4.7 3.7 6.5 6.6 5.9 6.0 5.7 5.5 5.4 5.0 5.4 5.8 6.3 6.6 6.2 5.8 6.1 6.5 6.5 5.7 3.8 4.1 4.7 4.4 4.2 5.7 5.4 4.6 4.4 4.6 5.4 6.6 6.0 5.7
7.9 7.8 7.8 7.6 7.4 5.1 4.4 3.7 4.6 4.7 4.4 4.7 6.5 6.5 6.2 5.5 6.3 6.5 5.6 6.3 6.1 6.2 6.6 6.0 6.4 6.4 6.5 6.5 6.1 4.8 5.6 4.4 4.3 4.3 4.4 4.1 4.4 5.2 5.6 5.6 5.3 5.7 5.3 5.1
8.0 8.0 5.7 4.1 3.5 4.2 4.6 4.8 3.6 3.0 4.3 6.6 6.6 6.5 6.5 5.7 6.5 6.0 6.3 6.5 6.5 6.3 6.5 6.5 6.4 6.5 6.5 6.5 5.8 5.4 5.1 4.6 4.2 4.9 4.8 5.0 4.9 4.6 4.7 4.7 4.7 4.7 4.4 4.3
7.7 4.6 3.8 5.6 4.8 5.5 5.2 4.7 4.6 5.4 5.7 5.6 6.5 6.5 6.5 6.1 6.3 6.7 6.6 6.5 6.5 6.5 6.4 5.8 6.5 6.5 6.1 5.7 4.8 3.5 2.8 2.8 3.5 3.6 5.0 5.4 5.3 4.9 4.3 4.1 3.7 3.6 3.6 3.8
3.6 5.1 6.3 5.7 5.8 4.7 5.0 5.9 6.4 6.3 6.5 6.7 6.6 6.5 6.5 6.3 6.5 6.5 6.9 6.5 6.5 6.5 6.5 6.5 6.5 6.5 5.8 1.2 -0.9 -0.2 1.0 1.7 1.8 2.6 3.0 3.8 2.4 2.0 2.3 2.9 3.3 3.4 3.5 3.5
5.2 5.7 5.8 5.4 4.6 3.8 6.4 6.5 6.5 6.5 6.5 6.2 6.4 6.5 6.4 6.2 6.5 6.6 6.6 6.5 6.5 6.5 4.9 6.5 6.5 6.5 5.2 1.9 -0.1 0.8 0.7 1.9 2.2 2.3 1.5 2.0 2.7 2.3 1.4 1.7 2.0 2.8 3.5 4.1
3.9 2.6 2.8 3.8 4.3 6.5 6.5 6.5 6.5 6.5 5.4 5.5 4.5 6.3 4.3 4.6 4.8 6.1 6.5 6.5 6.5 6.1 6.5 6.5 6.5 5.1 3.3 -0.5 -0.4 1.9 0.7 0.2 1.0 2.1 2.0 2.0 1.6 3.0 1.4 1.2 2.0 2.1 2.1 2.8
0.5 2.5 6.5 6.5 6.5 6.5 6.5 6.5 6.5 6.3 5.7 5.2 4.6 5.9 6.2 5.4 6.4 6.5 6.5 6.5 6.5 6.5 6.5 6.5 6.5 1.0 1.0 0.4 1.3 1.4 1.8 1.0 0.9 1.7 2.7 2.6 2.6 2.0 2.4 2.5 2.1 2.5 2.8 3.6
0.8 3.1 6.5 6.5 6.4 4.7 4.1 3.7 5.1 5.1 4.0 3.5 4.3 5.1 4.9 6.5 6.5 6.5 6.5 6.5 6.5 6.5 6.5 6.5 3.6 3.5 0.8 3.0 4.3 2.5 1.3 0.0 -0.6 -0.2 0.9 1.1 0.9 0.8 1.4 2.2 2.3 2.9 3.4 3.8
1.4 3.0 5.5 6.4 4.9 6.3 6.1 6.3 5.2 2.9 1.8 2.5 2.0 6.5 6.5 6.5 6.5 6.5 6.5 6.5 6.5 6.5 6.4 4.4 3.3 4.9 4.9 5.1 5.0 4.5 2.5 1.8 1.8 0.7 1.2 2.1 1.1 2.0 3.0 2.7 2.3 2.8 3.6 3.8
0.7 4.9 6.0 4.5 3.6 4.4 5.3 3.1 5.5 1.8 1.5 6.5 5.4 6.5 6.5 6.5 6.5 6.5 6.5 6.5 6.5 3.8 4.7 3.6 3.2 2.8 2.1 2.6 3.4 4.0 3.8 3.2 2.2 0.1 0.9 1.8 2.3 0.1 0.6 1.9 2.3 3.3 4.0 4.1
Wind_Speed
13 11 8 7 6 14 4 1 3 1 2 2 2 4 5 1 4 1 5 2 6 7 7 2 5 5 7 5 7 6 6 4 5 10 4 3 3 8 6 4 4 3 3 7
12 12 10 8 7 17 3 1 1 1 2 4 3 2 3 2 2 5 4 5 6 4 4 4 10 5 1 4 7 7 3 2 2 7 4 1 4 5 5 2 2 7 3 6
13 12 13 12 9 16 3 2 2 2 2 1 1 3 5 5 4 3 4 2 3 2 5 7 4 3 2 2 2 8 5 3 6 8 2 2 4 3 4 4 3 4 15 20
17 16 17 14 13 10 4 4 4 4 5 6 6 2 1 4 5 5 5 3 8 8 5 2 5 4 2 1 2 4 6 7 6 13 10 9 15 11 10 14 15 10 25 15
13 17 19 19 18 14 3 3 4 2 3 4 10 13 7 20 11 7 5 6 7 7 7 7 4 3 4 6 3 10 4 4 5 9 10 12 18 15 15 18 22 18 23 25
16 14 16 22 21 15 3 3 1 4 7 6 8 7 15 6 7 7 13 8 7 8 11 10 9 7 6 6 6 4 4 4 5 11 4 4 8 13 15 8 7 10 12 18
16 18 19 19 26 21 3 2 3 4 7 8 13 9 13 14 12 11 2 3 4 1 3 2 3 2 6 9 13 11 5 4 5 3 2 6 3 2 4 7 8 7 10 6
20 18 20 20 24 26 5 3 4 4 4 6 8 10 7 10 9 11 10 5 1 5 4 1 4 2 3 7 14 14 13 5 3 3 5 7 8 4 4 5 5 1 3 4
21 20 20 19 23 29 7 4 3 2 5 14 8 9 8 7 6 0 4 1 2 2 2 2 4 5 5 4 2 4 10 10 6 2 4 6 3 3 1 1 5 2 2 4
25 21 21 21 22 28 13 3 7 2 2 4 6 5 7 4 5 3 4 5 3 1 4 5 6 7 6 6 6 5 4 2 12 12 7 6 4 4 2 4 5 2 2 2
25 23 20 19 20 23 14 3 11 5 2 3 4 6 6 3 6 6 5 3 1 3 5 4 4 4 5 4 5 8 8 8 4 5 6 9 7 4 7 3 2 5 3 3
25 23 21 18 19 13 13 3 4 6 3 2 2 3 3 5 5 3 6 2 4 5 4 3 2 3 2 3 4 2 3 7 5 9 6 1 4 2 3 6 5 5 6 4
25 25 23 22 21 19 15 5 2 2 3 2 3 5 4 2 3 2 4 2 4 4 3 3 2 4 3 5 5 4 3 2 3 2 4 5 5 2 5 5 5 5 4 8
26 25 24 22 22 20 21 7 4 5 2 3 2 1 2 2 4 4 0 2 4 4 3 2 3 3 4 3 2 4 4 5 5 3 1 2 3 5 6 5 6 6 5 4
27 25 23 22 21 22 13 3 7 8 3 1 1 1 0 2 3 3 6 6 4 2 2 2 3 2 3 1 1 4 5 6 5 7 7 5 4 7 7 7 7 7 6 5
26 25 24 23 22 16 2 2 4 12 5 3 3 2 2 1 4 3 4 4 2 2 2 2 2 1 3 3 3 5 5 3 3 3 3 3 4 5 5 7 7 5 6 4
29 28 26 25 22 5 3 3 2 18 6 3 2 2 1 3 3 1 1 2 2 1 1 2 2 2 3 2 4 5 5 5 3 4 6 4 2 4 5 7 5 4 3 1
30 29 24 23 8 10 1 4 15 9 4 2 3 3 2 2 2 2 1 1 1 1 1 1 2 1 0 4 5 4 2 6 5 5 5 5 7 6 5 4 3 2 1 2
27 24 18 6 3 2 1 16 15 6 3 2 2 6 4 3 2 2 1 1 1 1 1 2 3 2 5 5 5 4 6 6 8 6 6 6 6 6 4 4 4 3 4 4
31 7 4 2 1 20 9 3 2 2 2 1 1 2 3 3 2 2 2 1 2 2 2 2 3 3 5 2 4 6 6 7 7 6 4 4 3 3 2 1 2 4 5 6
3 3 3 2 7 2 3 2 2 1 2 0 1 2 4 1 2 3 1 2 1 2 3 3 2 3 3 4 1 4 6 6 5 5 4 5 4 3 2 4 4 4 6 7
7 10 5 2 2 2 4 1 1 2 4 2 3 3 2 2 1 2 2 2 2 2 1 3 3 3 1 2 1 3 4 6 5 3 4 2 1 3 3 5 6 6 7 8
3 4 4 2 3 4 5 5 2 2 2 2 2 2 3 1 3 3 2 3 2 2 2 3 3 2 2 3 1 1 0 2 3 0 2 3 4 5 5 8 8 7 8 9
4 4 5 3 3 1 1 1 2 1 2 4 3 2 2 1 3 1 4 2 2 3 1 4 3 3 3 3 1 3 2 3 3 4 4 5 6 7 7 8 8 8 10 11
3 4 4 2 2 2 2 2 0 3 1 2 3 3 3 3 4 2 4 4 2 5 4 3 2 3 2 4 2 3 3 4 4 4 4 6 6 6 9 8 7 8 10 11
4 5 4 1 3 3 3 3 3 4 2 1 3 3 4 2 4 3 4 6 5 3 3 2 1 1 0 1 4 5 5 6 6 6 6 7 6 7 9 10 9 9 11 13
4 3 3 2 3 2 1 1 2 2 2 1 3 4 4 1 3 1 3 4 3 2 1 1 2 3 4 5 6 7 7 7 6 5 6 7 6 4 5 11 12 9 11 11
Wind_Direction
274 271 275 299 295 179 172 194 214 92 345 161 209 196 198 223 225 135 229 213 252 230 180 239 233 239 218 162 149 171 192 179 234 225 250 216 200 199 173 153 218 207 165 276
275 247 248 258 275 180 135 211 99 48 81 205 189 205 236 218 203 211 187 228 208 203 174 249 232 226 213 162 166 158 149 235 329 319 7 350 207 201 189 146 99 217 209 259
260 247 242 254 250 212 134 131 183 169 220 1 151 167 217 213 191 263 193 238 128 150 228 226 254 238 269 245 190 137 107 207 205 235 183 132 233 193 207 180 209 255 233 261
254 243 231 232 232 242 203 179 228 192 189 216 219 202 189 178 207 219 195 199 220 193 233 228 233 251 298 343 259 214 166 227 230 251 255 260 261 238 225 234 244 246 271 252
259 256 235 220 224 208 252 195 161 204 193 151 201 212 214 241 231 158 221 215 209 215 225 212 233 202 190 218 185 185 181 240 196 271 241 241 257 256 241 240 249 250 260 270
264 267 257 239 226 196 226 180 191 164 180 176 173 217 225 236 196 248 240 203 221 222 235 232 236 225 229 205 171 212 217 192 169 266 202 252 279 248 224 232 231 234 246 259
255 263 259 255 235 213 217 232 146 199 222 196 208 190 199 214 215 222 297 174 200 229 86 87 14 301 253 236 222 196 201 211 184 232 101 244 277 177 196 212 240 234 256 264
253 254 258 257 247 237 217 195 191 218 211 195 219 207 189 213 228 225 227 232 181 140 88 251 258 261 288 234 234 212 208 208 239 223 201 308 288 220 199 187 266 228 215 128
252 255 261 251 261 241 221 224 153 197 231 221 206 206 196 194 188 69 196 147 297 123 140 200 226 235 216 244 274 338 222 221 230 187 231 234 206 150 125 246 266 20 141 157
250 254 260 258 261 250 213 217 170 158 277 228 151 193 201 152 166 191 130 170 193 213 180 218 223 236 196 204 195 173 159 198 228 241 256 270 204 160 171 148 267 85 100 159
251 255 258 261 266 256 211 194 179 163 250 218 227 164 159 109 197 200 145 128 180 165 214 206 188 214 218 201 186 171 173 177 191 214 232 260 154 102 176 176 116 130 110 82
248 250 256 261 259 250 234 213 191 172 196 244 316 317 332 174 189 152 197 194 173 177 201 193 204 215 183 181 238 118 228 191 185 189 211 179 190 193 164 155 152 166 131 123
246 248 251 253 254 243 222 231 152 148 176 210 191 207 201 169 192 188 169 227 176 192 198 179 190 216 141 183 232 209 247 154 204 134 206 190 187 177 163 186 166 162 165 147
245 243 245 251 255 255 225 218 175 211 192 202 211 52 150 165 167 167 199 143 103 123 170 199 166 206 167 213 229 203 196 143 180 249 29 90 250 216 178 150 129 126 132 128
243 241 243 246 249 249 245 163 190 198 191 210 211 77 31 148 155 182 146 142 135 155 185 190 199 153 133 175 42 244 195 185 173 231 206 174 200 181 163 149 161 162 146 143
239 239 239 239 240 244 108 267 204 202 137 133 190 4 109 110 143 162 144 150 139 159 156 184 192 167 149 180 226 255 219 209 209 226 126 108 92 109 137 149 159 153 161 169
227 230 230 229 229 186 189 225 210 175 120 125 135 166 153 77 104 89 70 50 87 104 158 190 139 201 168 223 232 237 215 197 137 119 108 84 85 129 90 104 97 109 108 122
219 215 224 220 205 100 50 2 108 123 103 171 147 108 124 155 126 113 76 107 83 56 109 86 154 103 233 248 240 258 135 116 93 84 73 111 117 102 87 87 73 76 329 332
202 209 119 84 59 119 97 90 69 62 104 147 141 153 196 160 97 111 120 111 135 66 163 212 154 183 222 223 221 208 178 170 158 118 101 96 102 104 79 59 45 6 303 309
190 88 77 89 30 129 120 44 52 34 65 74 133 130 144 145 135 120 120 187 166 172 234 108 222 254 255 255 239 189 158 143 132 110 126 119 115 93 27 327 278 257 272 286
62 86 73 77 144 70 40 73 86 85 103 206 139 123 119 332 128 113 128 156 122 126 253 156 269 264 262 352 71 99 111 114 100 111 108 109 141 189 264 290 261 256 258 262
135 107 100 85 55 78 94 35 351 161 176 160 133 112 98 114 146 118 147 112 71 211 112 71 272 259 170 91 110 94 113 121 114 119 146 186 215 240 242 268 269 260 262 270
77 66 78 74 337 72 164 178 272 153 174 162 123 87 134 129 60 71 98 105 168 69 65 228 232 288 188 190 194 141 131 85 106 140 203 229 250 248 222 263 264 263 261 263
65 71 54 53 359 27 187 159 140 120 127 124 112 91 90 80 64 68 94 54 87 54 337 236 256 258 228 181 207 118 218 225 237 254 264 263 254 263 256 246 254 256 262 269
75 57 65 62 232 244 256 256 103 25 75 91 77 59 72 35 84 42 91 45 244 204 225 230 271 317 146 174 195 227 250 251 258 245 249 263 262 257 274 270 253 253 264 269
65 50 70 55 62 62 37 50 39 1 29 59 46 95 58 25 124 78 202 126 219 246 217 237 285 43 78 228 261 265 249 253 258 255 250 256 247 252 272 283 273 267 263 266
47 24 26 92 85 97 49 57 4 316 57 99 98 71 202 111 49 337 193 198 227 215 258 247 220 233 249 255 264 269 262 258 251 243 253 257 257 253 270 277 279 266 262 258